SCOUT A DEB, 2778

Orbit data source: Space-Track

SCOUT A DEB, 2778 is space debris in LEO originally from a launch on Fri, 14 Apr 1967 UTC launched from the Air Force Western Test Range (AFWTR). Debris objects in space refer to the collection of defunct objects orbiting the Earth. Examples of debris include non-operational satellites, rocket bodies, and fragments generated from explosions, collisions, or faulty payload assembly.

Loading next visibility...
Identifier
2778, 1967-034D
Orbit
LEO
Country
Flag of USUS
Related business
Manufacturer
Unknown
Mission
Spacecraft
Bus & Motor
Unknown
Mass
Unknown
Launch date (UTC)
1967-04-14 (59 years ago)
Launch vehicle
Unknown
Launch site
Air Force Western Test Range (AFWTR)
Object type
Payload
Rocket body
Debris
Shape & HBR
Unknown shape, 0.1 m
Radar Cross Section
Small (<0.1 m²)

Expand to show TLE details & history
Last TLE update: 1 day ago

TLE from 1 day ago
0 SCOUT A DEB
1 02778U 67034D   25311.96943074  .00000269  00000-0  49457-3 0  9997
2 02778  89.8476  40.8467 0121647 257.6599 163.4649 13.35186478843634
Epoch: 2025-11-07T23:15Z
TLE epoch observation values (Epoch: 2025-11-07T23:15:58.815Z)
Latitude
61.60112°
Longitude
4.72632°
Altitude
1,225.512 km
Speed
7.205 km/s
True Right ascension
02h 44m 30s
True Declination
61° 27' 57"
Sunlit
Object was in full shadow at epoch
Visualization orbit readout
Latitude
Unknown
Longitude
Unknown
Altitude
Unknown
Speed
Unknown
Apparent Right ascension
Unknown
Apparent Declination
Unknown
Sunlit
N/A
Visualization observer readout
Local Sidereal Time
20:12:51
Azimuth
Unknown
Elevation
Unknown
Doppler factor
Unknown
Orbital elements
Apogee altitude
1,215.6 km
Perigee altitude
1,033.069 km
Semi-major axis
7,502.472 km
Eccentricity
0.01216
Inclination
89.8476°
RAAN
40.8467°
Arg. of periapsis
257.6599°
True anomaly
163.85592°
Mean anomaly
163.4649°
Eccentric anomaly
163.66098°
Mean motion
3.33992 °/min
Orbital period
107.79 mins
BSTAR
0.00049457
Loading maneuver chart data...
Computing Atmospheric mass density...
Loading historical data...
Loading historical data...
Loading historical data...
Loading historical data...
Loading historical data...
Loading historical data...
Loading historical data...

Documentation

Showing up to 5 results
|